Year,Month,Day,Hour,Minute,Value (Times are PST for temperature in C)
2012,07,10,00,02,12.70
2012,07,10,00,03,12.70
2012,07,10,00,05,12.70
2012,07,10,00,06,12.70
2012,07,10,00,07,12.70
2012,07,10,00,09,12.70
2012,07,10,00,10,12.70
2012,07,10,00,11,12.70
2012,07,10,00,12,12.70
2012,07,10,00,13,12.70
2012,07,10,00,14,12.70
2012,07,10,00,15,12.70
2012,07,10,00,16,12.70
2012,07,10,00,17,12.70
2012,07,10,00,19,12.70
2012,07,10,00,20,12.70
2012,07,10,00,21,12.70
2012,07,10,00,22,12.70
2012,07,10,00,23,12.70
2012,07,10,00,24,12.80
2012,07,10,00,25,12.80
2012,07,10,00,27,12.80
2012,07,10,00,28,12.80
2012,07,10,00,29,12.80
2012,07,10,00,30,12.70
2012,07,10,00,31,12.80
2012,07,10,00,32,12.70
2012,07,10,00,33,12.80
2012,07,10,00,34,12.70
2012,07,10,00,36,12.80
2012,07,10,00,37,12.80
2012,07,10,00,38,12.80
2012,07,10,00,39,12.80
2012,07,10,00,41,12.80
2012,07,10,00,42,12.70
2012,07,10,00,43,12.70
2012,07,10,00,44,12.70
2012,07,10,00,46,12.70
2012,07,10,00,47,12.70
2012,07,10,00,48,12.70
2012,07,10,00,49,12.70
2012,07,10,00,51,12.70
2012,07,10,00,52,12.70
2012,07,10,00,53,12.70
2012,07,10,00,55,12.70
2012,07,10,00,56,12.60
2012,07,10,00,57,12.60
2012,07,10,00,58,12.60
2012,07,10,01,00,12.60
2012,07,10,01,01,12.60
2012,07,10,01,02,12.50
2012,07,10,01,03,12.40
2012,07,10,01,05,12.40
2012,07,10,01,06,12.40
2012,07,10,01,07,12.40
2012,07,10,01,08,12.30
2012,07,10,01,09,12.30
2012,07,10,01,10,12.30
2012,07,10,01,11,12.30
2012,07,10,01,12,12.30
2012,07,10,01,13,12.30
2012,07,10,01,14,12.30
2012,07,10,01,16,12.20
2012,07,10,01,17,12.20
2012,07,10,01,18,12.20
2012,07,10,01,19,12.20
2012,07,10,01,20,12.20
2012,07,10,01,21,12.20
2012,07,10,01,22,12.20
2012,07,10,01,23,12.20
2012,07,10,01,25,12.10
2012,07,10,01,26,12.10
2012,07,10,01,27,12.10
2012,07,10,01,28,12.10
2012,07,10,01,30,12.10
2012,07,10,01,31,12.10
2012,07,10,01,32,12.10
2012,07,10,01,33,12.10
2012,07,10,01,34,12.00
2012,07,10,01,35,12.00
2012,07,10,01,36,12.00
2012,07,10,01,37,12.00
2012,07,10,01,38,11.90
2012,07,10,01,40,11.90
2012,07,10,01,41,11.90
2012,07,10,01,42,11.90
2012,07,10,01,43,11.90
2012,07,10,01,44,11.90
2012,07,10,01,45,11.90
2012,07,10,01,46,11.90
2012,07,10,01,47,11.90
2012,07,10,01,49,11.90
2012,07,10,01,50,11.80
2012,07,10,01,51,11.80
2012,07,10,01,52,11.80
2012,07,10,01,54,11.80
2012,07,10,01,55,11.80
2012,07,10,01,56,11.80
2012,07,10,01,58,11.80
2012,07,10,01,59,11.80
2012,07,10,02,00,11.80
2012,07,10,02,01,11.80
2012,07,10,02,03,11.80
2012,07,10,02,04,11.80
2012,07,10,02,05,11.80
2012,07,10,02,06,11.80
2012,07,10,02,08,11.80
2012,07,10,02,09,11.80
2012,07,10,02,10,11.80
2012,07,10,02,11,11.80
2012,07,10,02,12,11.80
2012,07,10,02,14,11.80
2012,07,10,02,15,11.80
2012,07,10,02,16,11.80
2012,07,10,02,17,11.80
2012,07,10,02,19,11.80
2012,07,10,02,20,11.80
2012,07,10,02,21,11.80
2012,07,10,02,23,11.80
2012,07,10,02,24,11.80
2012,07,10,02,25,11.80
2012,07,10,02,27,11.80
2012,07,10,02,28,11.80
2012,07,10,02,29,11.80
2012,07,10,02,30,11.80
2012,07,10,02,31,11.80
2012,07,10,02,33,11.80
2012,07,10,02,34,11.80
2012,07,10,02,35,11.80
2012,07,10,02,36,11.80
2012,07,10,02,37,11.90
2012,07,10,02,39,11.80
2012,07,10,02,40,11.90
2012,07,10,02,41,11.90
2012,07,10,02,43,11.90
2012,07,10,02,44,11.90
2012,07,10,02,45,11.90
2012,07,10,02,46,11.90
2012,07,10,02,48,11.90
2012,07,10,02,49,11.90
2012,07,10,02,50,11.80
2012,07,10,02,51,11.80
2012,07,10,02,53,11.80
2012,07,10,02,54,11.80
2012,07,10,02,55,11.80
2012,07,10,02,57,11.80
2012,07,10,02,58,11.80
2012,07,10,02,59,11.80
2012,07,10,03,00,11.80
2012,07,10,03,01,11.70
2012,07,10,03,02,11.70
2012,07,10,03,03,11.70
2012,07,10,03,04,11.70
2012,07,10,03,05,11.70
2012,07,10,03,07,11.70
2012,07,10,03,08,11.60
2012,07,10,03,09,11.60
2012,07,10,03,10,11.60
2012,07,10,03,12,11.60
2012,07,10,03,13,11.60
2012,07,10,03,14,11.60
2012,07,10,03,15,11.60
2012,07,10,03,17,11.60
2012,07,10,03,18,11.50
2012,07,10,03,19,11.50
2012,07,10,03,20,11.50
2012,07,10,03,21,11.50
2012,07,10,03,22,11.50
2012,07,10,03,23,11.50
2012,07,10,03,24,11.50
2012,07,10,03,25,11.50
2012,07,10,03,26,11.50
2012,07,10,03,27,11.50
2012,07,10,03,28,11.50
2012,07,10,03,29,11.50
2012,07,10,03,30,11.40
2012,07,10,03,31,11.40
2012,07,10,03,33,11.40
2012,07,10,03,34,11.40
2012,07,10,03,35,11.40
2012,07,10,03,36,11.40
2012,07,10,03,37,11.40
2012,07,10,03,38,11.40
2012,07,10,03,39,11.40
2012,07,10,03,40,11.40
2012,07,10,03,42,11.40
2012,07,10,03,43,11.40
2012,07,10,03,44,11.40
2012,07,10,03,45,11.40
2012,07,10,03,47,11.40
2012,07,10,03,48,11.40
2012,07,10,03,49,11.40
2012,07,10,03,51,11.30
2012,07,10,03,52,11.30
2012,07,10,03,53,11.40
2012,07,10,03,54,11.40
2012,07,10,03,56,11.40
2012,07,10,03,57,11.40
2012,07,10,03,58,11.40
2012,07,10,04,00,11.40
2012,07,10,04,01,11.40
2012,07,10,04,02,11.40
2012,07,10,04,04,11.40
2012,07,10,04,05,11.40
2012,07,10,04,06,11.40
2012,07,10,04,08,11.50
2012,07,10,04,09,11.50
2012,07,10,04,10,11.50
2012,07,10,04,11,11.50
2012,07,10,04,13,11.50
2012,07,10,04,14,11.50
2012,07,10,04,15,11.50
2012,07,10,04,16,11.50
2012,07,10,04,18,11.50
2012,07,10,04,19,11.50
2012,07,10,04,20,11.50
2012,07,10,04,22,11.50
2012,07,10,04,23,11.40
2012,07,10,04,24,11.40
2012,07,10,04,25,11.40
2012,07,10,04,26,11.40
2012,07,10,04,27,11.40
2012,07,10,04,28,11.40
2012,07,10,04,29,11.40
2012,07,10,04,31,11.40
2012,07,10,04,32,11.40
2012,07,10,04,33,11.30
2012,07,10,04,34,11.30
2012,07,10,04,36,11.30
2012,07,10,04,37,11.30
2012,07,10,04,38,11.30
2012,07,10,04,39,11.30
2012,07,10,04,41,11.30
2012,07,10,04,42,11.30
2012,07,10,04,43,11.20
2012,07,10,04,44,11.20
2012,07,10,04,45,11.20
2012,07,10,04,47,11.20
2012,07,10,04,48,11.20
2012,07,10,04,49,11.20
2012,07,10,04,50,11.20
2012,07,10,04,51,11.20
2012,07,10,04,52,11.30
2012,07,10,04,53,11.30
2012,07,10,04,54,11.30
2012,07,10,04,55,11.30
2012,07,10,04,57,11.30
2012,07,10,04,58,11.30
2012,07,10,04,59,11.30
2012,07,10,05,01,11.30
2012,07,10,05,02,11.30
2012,07,10,05,03,11.30
2012,07,10,05,04,11.30
2012,07,10,05,06,11.30
2012,07,10,05,07,11.30
2012,07,10,05,08,11.20
2012,07,10,05,09,11.20
2012,07,10,05,11,11.20
2012,07,10,05,12,11.20
2012,07,10,05,13,11.20
2012,07,10,05,15,11.20
2012,07,10,05,16,11.20
2012,07,10,05,17,11.20
2012,07,10,05,18,11.20
2012,07,10,05,19,11.20
2012,07,10,05,21,11.20
2012,07,10,05,22,11.20
2012,07,10,05,23,11.20
2012,07,10,05,24,11.20
2012,07,10,05,26,11.20
2012,07,10,05,27,11.30
2012,07,10,05,28,11.30
2012,07,10,05,30,11.30
2012,07,10,05,31,11.30
2012,07,10,05,32,11.30
2012,07,10,05,33,11.30
2012,07,10,05,35,11.20
2012,07,10,05,36,11.20
2012,07,10,05,37,11.20
2012,07,10,05,39,11.20
2012,07,10,05,40,11.20
2012,07,10,05,41,11.30
2012,07,10,05,43,11.20
2012,07,10,05,44,11.20
2012,07,10,05,45,11.20
2012,07,10,05,46,11.20
2012,07,10,05,48,11.20
2012,07,10,05,49,11.20
2012,07,10,05,50,11.20
2012,07,10,05,51,11.20
2012,07,10,05,52,11.20
2012,07,10,05,54,11.20
2012,07,10,05,55,11.30
2012,07,10,05,56,11.30
2012,07,10,05,58,11.20
2012,07,10,05,59,11.20
2012,07,10,06,00,11.20
2012,07,10,06,01,11.20
2012,07,10,06,03,11.20
2012,07,10,06,04,11.20
2012,07,10,06,05,11.20
2012,07,10,06,06,11.20
2012,07,10,06,07,11.20
2012,07,10,06,08,11.20
2012,07,10,06,09,11.20
2012,07,10,06,11,11.20
2012,07,10,06,12,11.20
2012,07,10,06,13,11.20
2012,07,10,06,14,11.20
2012,07,10,06,16,11.20
2012,07,10,06,17,11.20
2012,07,10,06,18,11.20
2012,07,10,06,19,11.20
2012,07,10,06,21,11.30
2012,07,10,06,22,11.30
2012,07,10,06,23,11.20
2012,07,10,06,24,11.30
2012,07,10,06,26,11.30
2012,07,10,06,27,11.30
2012,07,10,06,28,11.30
2012,07,10,06,29,11.30
2012,07,10,06,31,11.30
2012,07,10,06,32,11.30
2012,07,10,06,33,11.30
2012,07,10,06,35,11.30
2012,07,10,06,36,11.30
2012,07,10,06,37,11.30
2012,07,10,06,38,11.40
2012,07,10,06,40,11.40
2012,07,10,06,41,11.40
2012,07,10,06,42,11.40
2012,07,10,06,43,11.50
2012,07,10,06,45,11.60
2012,07,10,06,46,11.60
2012,07,10,06,47,11.70
2012,07,10,06,49,11.70
2012,07,10,06,50,11.80
2012,07,10,06,51,11.80
2012,07,10,06,52,11.80
2012,07,10,06,53,11.80
2012,07,10,06,55,11.90
2012,07,10,06,56,11.90
2012,07,10,06,57,12.00
2012,07,10,06,58,12.10
2012,07,10,06,59,12.10
2012,07,10,07,01,12.10
2012,07,10,07,02,12.20
2012,07,10,07,03,12.20
2012,07,10,07,04,12.30
2012,07,10,07,06,12.30
2012,07,10,07,07,12.40
2012,07,10,07,08,12.40
2012,07,10,07,09,12.40
2012,07,10,07,10,12.40
2012,07,10,07,12,12.50
2012,07,10,07,13,12.50
2012,07,10,07,14,12.60
2012,07,10,07,16,12.60
2012,07,10,07,17,12.60
2012,07,10,07,18,12.70
2012,07,10,07,19,12.70
2012,07,10,07,20,12.70
2012,07,10,07,21,12.80
2012,07,10,07,22,12.80
2012,07,10,07,23,12.80
2012,07,10,07,24,12.80
2012,07,10,07,25,12.90
2012,07,10,07,26,12.90
2012,07,10,07,27,12.90
2012,07,10,07,28,12.90
2012,07,10,07,30,13.00
2012,07,10,07,31,13.10
2012,07,10,07,32,13.10
2012,07,10,07,34,13.10
2012,07,10,07,35,13.20
2012,07,10,07,36,13.20
2012,07,10,07,37,13.30
2012,07,10,07,38,13.30
2012,07,10,07,39,13.30
2012,07,10,07,40,13.40
2012,07,10,07,41,13.40
2012,07,10,07,43,13.40
2012,07,10,07,44,13.60
2012,07,10,07,45,13.60
2012,07,10,07,46,13.70
2012,07,10,07,47,13.70
2012,07,10,07,48,13.80
2012,07,10,07,49,13.80
2012,07,10,07,50,13.80
2012,07,10,07,51,13.90
2012,07,10,07,52,13.90
2012,07,10,07,53,13.90
2012,07,10,07,54,14.10
2012,07,10,07,55,14.20
2012,07,10,07,56,14.30
2012,07,10,07,57,14.40
2012,07,10,07,59,14.50
2012,07,10,08,00,14.60
2012,07,10,08,01,14.60
2012,07,10,08,02,14.60
2012,07,10,08,04,14.60
2012,07,10,08,05,14.60
2012,07,10,08,06,14.70
2012,07,10,08,07,14.70
2012,07,10,08,08,14.70
2012,07,10,08,10,14.70
2012,07,10,08,11,14.80
2012,07,10,08,12,14.80
2012,07,10,08,13,14.90
2012,07,10,08,15,15.00
2012,07,10,08,16,15.20
2012,07,10,08,17,15.30
2012,07,10,08,18,15.40
2012,07,10,08,20,15.60
2012,07,10,08,21,15.70
2012,07,10,08,22,15.80
2012,07,10,08,24,15.90
2012,07,10,08,25,16.20
2012,07,10,08,26,16.30
2012,07,10,08,28,16.40
2012,07,10,08,29,16.50
2012,07,10,08,30,16.60
2012,07,10,08,31,16.60
2012,07,10,08,32,16.70
2012,07,10,08,34,16.70
2012,07,10,08,35,16.80
2012,07,10,08,36,16.90
2012,07,10,08,37,17.00
2012,07,10,08,38,17.00
2012,07,10,08,39,17.00
2012,07,10,08,40,17.00
2012,07,10,08,41,17.00
2012,07,10,08,42,17.10
2012,07,10,08,43,17.10
2012,07,10,08,44,17.10
2012,07,10,08,45,17.10
2012,07,10,08,46,17.10
2012,07,10,08,47,17.10
2012,07,10,08,48,17.10
2012,07,10,08,49,17.10
2012,07,10,08,50,17.10
2012,07,10,08,51,17.10
2012,07,10,08,52,16.90
2012,07,10,08,53,16.80
2012,07,10,08,54,16.80
2012,07,10,08,55,16.80
2012,07,10,08,57,16.70
2012,07,10,08,58,16.70
2012,07,10,08,59,16.70
2012,07,10,09,00,16.60
2012,07,10,09,02,16.60
2012,07,10,09,03,16.50
2012,07,10,09,04,16.40
2012,07,10,09,05,16.40
2012,07,10,09,07,16.30
2012,07,10,09,08,16.30
2012,07,10,09,09,16.10
2012,07,10,09,10,16.00
2012,07,10,09,12,15.90
2012,07,10,09,13,15.90
2012,07,10,09,14,16.00
2012,07,10,09,15,16.00
2012,07,10,09,16,16.00
2012,07,10,09,17,16.00
2012,07,10,09,18,16.00
2012,07,10,09,19,16.00
2012,07,10,09,20,15.90
2012,07,10,09,21,15.90
2012,07,10,09,22,15.90
2012,07,10,09,23,15.90
2012,07,10,09,24,15.90
2012,07,10,09,25,16.00
2012,07,10,09,27,16.10
2012,07,10,09,28,16.20
2012,07,10,09,29,16.30
2012,07,10,09,30,16.30
2012,07,10,09,31,16.30
2012,07,10,09,33,16.40
2012,07,10,09,34,16.60
2012,07,10,09,35,16.70
2012,07,10,09,36,16.80
2012,07,10,09,38,16.80
2012,07,10,09,39,16.90
2012,07,10,09,40,17.10
2012,07,10,09,41,17.10
2012,07,10,09,43,17.20
2012,07,10,09,44,17.30
2012,07,10,09,45,17.30
2012,07,10,09,47,17.30
2012,07,10,09,48,17.30
2012,07,10,09,49,17.20
2012,07,10,09,50,17.20
2012,07,10,09,51,17.20
2012,07,10,09,53,17.30
2012,07,10,09,54,17.30
2012,07,10,09,55,17.40
2012,07,10,09,57,17.40
2012,07,10,09,58,17.50
2012,07,10,09,59,17.50
2012,07,10,10,00,17.50
2012,07,10,10,02,17.50
2012,07,10,10,03,17.60
2012,07,10,10,04,17.60
2012,07,10,10,05,17.60
2012,07,10,10,07,17.70
2012,07,10,10,08,17.70
2012,07,10,10,09,17.70
2012,07,10,10,10,17.80
2012,07,10,10,12,17.80
2012,07,10,10,13,17.90
2012,07,10,10,14,18.10
2012,07,10,10,16,18.10
2012,07,10,10,17,18.10
2012,07,10,10,18,18.10
2012,07,10,10,19,17.90
2012,07,10,10,21,17.90
2012,07,10,10,22,17.80
2012,07,10,10,23,17.70
2012,07,10,10,24,17.70
2012,07,10,10,26,17.70
2012,07,10,10,27,17.70
2012,07,10,10,28,17.80
2012,07,10,10,29,17.90
2012,07,10,10,31,18.00
2012,07,10,10,32,18.20
2012,07,10,10,33,18.30
2012,07,10,10,34,18.30
2012,07,10,10,36,18.40
2012,07,10,10,37,18.40
2012,07,10,10,38,18.40
2012,07,10,10,39,18.30
2012,07,10,10,41,18.20
2012,07,10,10,42,18.20
2012,07,10,10,43,18.20
2012,07,10,10,44,18.10
2012,07,10,10,45,18.10
2012,07,10,10,46,18.10
2012,07,10,10,47,18.10
2012,07,10,10,48,18.10
2012,07,10,10,49,18.20
2012,07,10,10,50,18.20
2012,07,10,10,51,18.30
2012,07,10,10,52,18.30
2012,07,10,10,53,18.40
2012,07,10,10,55,18.40
2012,07,10,10,56,18.70
2012,07,10,10,57,18.70
2012,07,10,10,58,18.90
2012,07,10,10,59,19.00
2012,07,10,11,00,19.10
2012,07,10,11,01,19.20
2012,07,10,11,02,19.20
2012,07,10,11,03,19.30
2012,07,10,11,05,19.40
2012,07,10,11,06,19.50
2012,07,10,11,07,19.60
2012,07,10,11,08,19.60
2012,07,10,11,09,19.70
2012,07,10,11,11,19.60
2012,07,10,11,12,19.60
2012,07,10,11,13,19.50
2012,07,10,11,15,19.40
2012,07,10,11,16,19.40
2012,07,10,11,17,19.40
2012,07,10,11,18,19.40
2012,07,10,11,20,19.60
2012,07,10,11,21,19.80
2012,07,10,11,22,19.90
2012,07,10,11,23,19.90
2012,07,10,11,24,19.90
2012,07,10,11,26,19.90
2012,07,10,11,27,19.90
2012,07,10,11,28,19.80
2012,07,10,11,29,19.70
2012,07,10,11,31,19.60
2012,07,10,11,32,19.30
2012,07,10,11,33,19.20
2012,07,10,11,34,19.20
2012,07,10,11,36,19.20
2012,07,10,11,37,19.20
2012,07,10,11,38,19.30
2012,07,10,11,39,19.30
2012,07,10,11,41,19.30
2012,07,10,11,42,19.30
2012,07,10,11,43,19.30
2012,07,10,11,45,19.40
2012,07,10,11,46,19.40
2012,07,10,11,47,19.70
2012,07,10,11,48,19.80
2012,07,10,11,50,19.80
2012,07,10,11,51,19.90
2012,07,10,11,52,19.90
2012,07,10,11,53,20.00
2012,07,10,11,54,20.00
2012,07,10,11,56,20.10
2012,07,10,11,57,20.10
2012,07,10,11,58,20.20
2012,07,10,11,59,20.10
2012,07,10,12,01,19.90
2012,07,10,12,02,19.90
2012,07,10,12,03,19.90
2012,07,10,12,04,19.90
2012,07,10,12,05,20.00
2012,07,10,12,07,20.10
2012,07,10,12,08,20.10
2012,07,10,12,09,20.20
2012,07,10,12,10,20.30
2012,07,10,12,11,20.30
2012,07,10,12,13,20.20
2012,07,10,12,14,20.20
2012,07,10,12,15,20.20
2012,07,10,12,16,20.20
2012,07,10,12,18,20.30
2012,07,10,12,19,20.20
2012,07,10,12,20,20.20
2012,07,10,12,21,20.20
2012,07,10,12,23,20.20
2012,07,10,12,24,20.20
2012,07,10,12,25,20.20
2012,07,10,12,26,20.30
2012,07,10,12,28,20.30
2012,07,10,12,29,20.30
2012,07,10,12,30,20.30
2012,07,10,12,31,20.20
2012,07,10,12,33,20.10
2012,07,10,12,34,20.10
2012,07,10,12,35,20.10
2012,07,10,12,37,20.10
2012,07,10,12,38,20.00
2012,07,10,12,39,20.10
2012,07,10,12,40,20.10
2012,07,10,12,41,20.10
2012,07,10,12,42,20.10
2012,07,10,12,43,20.10
2012,07,10,12,44,20.10
2012,07,10,12,46,20.10
2012,07,10,12,47,19.90
2012,07,10,12,48,19.80
2012,07,10,12,49,19.80
2012,07,10,12,51,19.80
2012,07,10,12,52,19.90
2012,07,10,12,53,19.90
2012,07,10,12,54,19.90
2012,07,10,12,55,20.00
2012,07,10,12,56,20.00
2012,07,10,12,57,20.00
2012,07,10,12,58,20.00
2012,07,10,12,59,20.00
2012,07,10,13,01,19.90
2012,07,10,13,02,19.90
2012,07,10,13,03,19.90
2012,07,10,13,04,19.90
2012,07,10,13,06,19.80
2012,07,10,13,07,19.80
2012,07,10,13,08,19.70
2012,07,10,13,10,19.80
2012,07,10,13,11,19.80
2012,07,10,13,12,19.90
2012,07,10,13,13,19.90
2012,07,10,13,14,20.10
2012,07,10,13,16,20.20
2012,07,10,13,17,20.30
2012,07,10,13,18,20.30
2012,07,10,13,20,20.40
2012,07,10,13,21,20.50
2012,07,10,13,22,20.50
2012,07,10,13,23,20.60
2012,07,10,13,25,20.60
2012,07,10,13,26,20.70
2012,07,10,13,27,20.70
2012,07,10,13,28,20.80
2012,07,10,13,29,20.80
2012,07,10,13,30,20.80
2012,07,10,13,31,20.80
2012,07,10,13,32,20.80
2012,07,10,13,34,20.80
2012,07,10,13,35,20.90
2012,07,10,13,36,20.90
2012,07,10,13,37,21.00
2012,07,10,13,39,21.10
2012,07,10,13,40,21.10
2012,07,10,13,41,21.10
2012,07,10,13,42,21.10
2012,07,10,13,44,21.00
2012,07,10,13,45,21.10
2012,07,10,13,46,21.20
2012,07,10,13,47,21.20
2012,07,10,13,49,21.30
2012,07,10,13,50,21.40
2012,07,10,13,51,21.40
2012,07,10,13,52,21.50
2012,07,10,13,53,21.60
2012,07,10,13,55,21.60
2012,07,10,13,56,21.60
2012,07,10,13,57,21.60
2012,07,10,13,58,21.60
2012,07,10,14,00,21.60
2012,07,10,14,01,21.60
2012,07,10,14,02,21.70
2012,07,10,14,03,21.70
2012,07,10,14,05,21.80
2012,07,10,14,06,21.80
2012,07,10,14,07,22.00
2012,07,10,14,08,22.10
2012,07,10,14,10,22.30
2012,07,10,14,11,22.40
2012,07,10,14,12,22.40
2012,07,10,14,13,22.50
2012,07,10,14,15,22.60
2012,07,10,14,16,22.70
2012,07,10,14,17,22.70
2012,07,10,14,18,22.80
2012,07,10,14,19,22.80
2012,07,10,14,20,22.70
2012,07,10,14,21,22.50
2012,07,10,14,23,22.30
2012,07,10,14,24,22.10
2012,07,10,14,25,22.00
2012,07,10,14,26,21.90
2012,07,10,14,28,21.90
2012,07,10,14,29,22.10
2012,07,10,14,30,22.30
2012,07,10,14,31,22.40
2012,07,10,14,32,22.50
2012,07,10,14,33,22.60
2012,07,10,14,34,22.60
2012,07,10,14,35,22.60
2012,07,10,14,36,22.70
2012,07,10,14,37,22.70
2012,07,10,14,38,22.70
2012,07,10,14,39,22.80
2012,07,10,14,40,22.80
2012,07,10,14,41,22.90
2012,07,10,14,42,23.00
2012,07,10,14,43,23.10
2012,07,10,14,44,23.10
2012,07,10,14,45,23.00
2012,07,10,14,46,22.90
2012,07,10,14,47,22.80
2012,07,10,14,48,22.80
2012,07,10,14,49,22.70
2012,07,10,14,50,22.80
2012,07,10,14,51,22.80
2012,07,10,14,52,22.90
2012,07,10,14,53,23.00
2012,07,10,14,54,23.10
2012,07,10,14,55,23.10
2012,07,10,14,56,23.20
2012,07,10,14,57,23.20
2012,07,10,14,58,23.20
2012,07,10,14,59,23.30
2012,07,10,15,00,23.30
2012,07,10,15,01,23.30
2012,07,10,15,02,23.30
2012,07,10,15,03,23.40
2012,07,10,15,04,23.50
2012,07,10,15,05,23.60
2012,07,10,15,06,23.60
2012,07,10,15,07,23.70
2012,07,10,15,08,23.70
2012,07,10,15,09,23.70
2012,07,10,15,10,23.70
2012,07,10,15,11,23.60
2012,07,10,15,12,23.60
2012,07,10,15,13,23.70
2012,07,10,15,14,23.70
2012,07,10,15,15,23.80
2012,07,10,15,16,23.80
2012,07,10,15,17,23.90
2012,07,10,15,18,23.90
2012,07,10,15,19,23.90
2012,07,10,15,20,23.90
2012,07,10,15,21,24.00
2012,07,10,15,22,24.10
2012,07,10,15,23,24.10
2012,07,10,15,24,24.10
2012,07,10,15,25,24.10
2012,07,10,15,26,24.20
2012,07,10,15,27,24.30
2012,07,10,15,28,24.20
2012,07,10,15,29,24.20
2012,07,10,15,30,24.00
2012,07,10,15,31,23.90
2012,07,10,15,32,23.80
2012,07,10,15,34,23.70
2012,07,10,15,35,23.60
2012,07,10,15,36,23.60
2012,07,10,15,38,23.70
2012,07,10,15,39,23.80
2012,07,10,15,40,23.90
2012,07,10,15,41,24.00
2012,07,10,15,43,24.10
2012,07,10,15,44,24.30
2012,07,10,15,45,24.40
2012,07,10,15,46,24.40
2012,07,10,15,47,24.30
2012,07,10,15,49,24.30
2012,07,10,15,50,24.20
2012,07,10,15,51,24.20
2012,07,10,15,53,24.20
2012,07,10,15,54,23.90
2012,07,10,15,55,23.80
2012,07,10,15,56,23.70
2012,07,10,15,58,23.60
2012,07,10,15,59,23.60
2012,07,10,16,00,23.60
2012,07,10,16,01,23.50
2012,07,10,16,02,23.50
2012,07,10,16,04,23.40
2012,07,10,16,05,23.40
2012,07,10,16,06,23.40
2012,07,10,16,08,23.50
2012,07,10,16,09,23.50
2012,07,10,16,10,23.60
2012,07,10,16,11,23.60
2012,07,10,16,13,23.70
2012,07,10,16,14,23.80
2012,07,10,16,15,23.90
2012,07,10,16,17,23.90
2012,07,10,16,18,23.80
2012,07,10,16,19,23.80
2012,07,10,16,20,23.90
2012,07,10,16,22,24.10
2012,07,10,16,23,24.30
2012,07,10,16,24,24.30
2012,07,10,16,26,24.40
2012,07,10,16,27,24.40
2012,07,10,16,28,24.30
2012,07,10,16,29,24.30
2012,07,10,16,30,24.30
2012,07,10,16,32,24.30
2012,07,10,16,33,24.20
2012,07,10,16,34,24.20
2012,07,10,16,35,24.10
2012,07,10,16,37,23.90
2012,07,10,16,38,23.70
2012,07,10,16,39,23.60
2012,07,10,16,40,23.60
2012,07,10,16,42,23.60
2012,07,10,16,43,23.60
2012,07,10,16,44,23.70
2012,07,10,16,45,23.70
2012,07,10,16,47,23.70
2012,07,10,16,48,23.80
2012,07,10,16,49,23.90
2012,07,10,16,50,23.90
2012,07,10,16,51,23.90
2012,07,10,16,53,23.90
2012,07,10,16,54,23.70
2012,07,10,16,55,23.60
2012,07,10,16,56,23.50
2012,07,10,16,58,23.50
2012,07,10,16,59,23.30
2012,07,10,17,00,23.30
2012,07,10,17,01,23.30
2012,07,10,17,02,23.30
2012,07,10,17,04,23.30
2012,07,10,17,05,23.40
2012,07,10,17,06,23.40
2012,07,10,17,07,23.30
2012,07,10,17,09,23.10
2012,07,10,17,10,23.10
2012,07,10,17,11,23.10
2012,07,10,17,12,23.10
2012,07,10,17,13,23.10
2012,07,10,17,15,23.20
2012,07,10,17,16,23.20
2012,07,10,17,17,23.20
2012,07,10,17,18,23.20
2012,07,10,17,19,23.20
2012,07,10,17,21,23.20
2012,07,10,17,22,23.10
2012,07,10,17,23,23.00
2012,07,10,17,24,22.90
2012,07,10,17,25,22.80
2012,07,10,17,26,22.80
2012,07,10,17,28,22.70
2012,07,10,17,29,22.80
2012,07,10,17,30,22.80
2012,07,10,17,31,22.80
2012,07,10,17,32,22.80
2012,07,10,17,34,22.90
2012,07,10,17,35,22.90
2012,07,10,17,36,22.80
2012,07,10,17,38,22.80
2012,07,10,17,39,22.80
2012,07,10,17,40,22.80
2012,07,10,17,41,22.80
2012,07,10,17,43,22.80
2012,07,10,17,44,22.90
2012,07,10,17,45,22.90
2012,07,10,17,46,23.10
2012,07,10,17,48,23.10
2012,07,10,17,49,23.20
2012,07,10,17,50,23.30
2012,07,10,17,52,23.30
2012,07,10,17,53,23.20
2012,07,10,17,54,23.20
2012,07,10,17,55,23.20
2012,07,10,17,57,23.20
2012,07,10,17,58,23.30
2012,07,10,17,59,23.40
2012,07,10,18,00,23.40
2012,07,10,18,02,23.40
2012,07,10,18,03,23.40
2012,07,10,18,04,23.30
2012,07,10,18,06,23.30
2012,07,10,18,07,23.30
2012,07,10,18,08,23.40
2012,07,10,18,09,23.50
2012,07,10,18,11,23.50
2012,07,10,18,12,23.40
2012,07,10,18,13,23.30
2012,07,10,18,14,23.30
2012,07,10,18,15,23.20
2012,07,10,18,17,23.10
2012,07,10,18,18,23.10
2012,07,10,18,19,23.10
2012,07,10,18,20,23.20
2012,07,10,18,22,23.20
2012,07,10,18,23,23.30
2012,07,10,18,24,23.30
2012,07,10,18,26,23.30
2012,07,10,18,27,23.50
2012,07,10,18,28,23.60
2012,07,10,18,30,23.60
2012,07,10,18,31,23.60
2012,07,10,18,32,23.60
2012,07,10,18,33,23.60
2012,07,10,18,34,23.50
2012,07,10,18,35,23.60
2012,07,10,18,36,23.60
2012,07,10,18,37,23.60
2012,07,10,18,38,23.50
2012,07,10,18,39,23.50
2012,07,10,18,40,23.50
2012,07,10,18,41,23.40
2012,07,10,18,42,23.40
2012,07,10,18,43,23.40
2012,07,10,18,44,23.50
2012,07,10,18,45,23.50
2012,07,10,18,46,23.50
2012,07,10,18,47,23.50
2012,07,10,18,48,23.50
2012,07,10,18,49,23.50
2012,07,10,18,50,23.40
2012,07,10,18,51,23.40
2012,07,10,18,52,23.30
2012,07,10,18,53,23.30
2012,07,10,18,54,23.30
2012,07,10,18,55,23.30
2012,07,10,18,56,23.30
2012,07,10,18,57,23.30
2012,07,10,18,58,23.40
2012,07,10,18,59,23.40
2012,07,10,19,01,23.40
2012,07,10,19,02,23.40
2012,07,10,19,03,23.30
2012,07,10,19,04,23.30
2012,07,10,19,05,23.30
2012,07,10,19,06,23.30
2012,07,10,19,07,23.20
2012,07,10,19,08,23.20
2012,07,10,19,09,23.20
2012,07,10,19,10,23.10
2012,07,10,19,11,23.10
2012,07,10,19,12,23.00
2012,07,10,19,13,23.00
2012,07,10,19,14,23.00
2012,07,10,19,15,23.10
2012,07,10,19,16,23.10
2012,07,10,19,17,23.10
2012,07,10,19,18,23.10
2012,07,10,19,19,23.10
2012,07,10,19,20,23.20
2012,07,10,19,21,23.20
2012,07,10,19,22,23.20
2012,07,10,19,23,23.20
2012,07,10,19,24,23.20
2012,07,10,19,25,23.20
2012,07,10,19,26,23.20
2012,07,10,19,27,23.20
2012,07,10,19,28,23.20
2012,07,10,19,29,23.20
2012,07,10,19,30,23.10
2012,07,10,19,31,23.10
2012,07,10,19,32,23.00
2012,07,10,19,34,22.90
2012,07,10,19,35,22.80
2012,07,10,19,36,22.80
2012,07,10,19,38,22.80
2012,07,10,19,39,22.80
2012,07,10,19,40,22.80
2012,07,10,19,41,22.70
2012,07,10,19,43,22.60
2012,07,10,19,44,22.40
2012,07,10,19,45,22.30
2012,07,10,19,46,22.30
2012,07,10,19,48,22.30
2012,07,10,19,49,22.30
2012,07,10,19,50,22.30
2012,07,10,19,52,22.20
2012,07,10,19,53,22.20
2012,07,10,19,54,22.20
2012,07,10,19,55,22.20
2012,07,10,19,57,22.20
2012,07,10,19,58,22.10
2012,07,10,19,59,22.00
2012,07,10,20,00,21.90
2012,07,10,20,02,21.70
2012,07,10,20,03,21.60
2012,07,10,20,04,21.40
2012,07,10,20,05,21.30
2012,07,10,20,06,21.30
2012,07,10,20,07,21.20
2012,07,10,20,08,21.10
2012,07,10,20,10,21.00
2012,07,10,20,11,20.90
2012,07,10,20,12,20.90
2012,07,10,20,13,20.90
2012,07,10,20,14,20.90
2012,07,10,20,16,20.90
2012,07,10,20,17,20.80
2012,07,10,20,18,20.80
2012,07,10,20,19,20.80
2012,07,10,20,21,20.80
2012,07,10,20,22,20.80
2012,07,10,20,23,20.70
2012,07,10,20,24,20.70
2012,07,10,20,26,20.60
2012,07,10,20,27,20.40
2012,07,10,20,28,20.30
2012,07,10,20,30,20.20
2012,07,10,20,31,20.00
2012,07,10,20,32,19.90
2012,07,10,20,34,19.80
2012,07,10,20,35,19.80
2012,07,10,20,36,19.70
2012,07,10,20,37,19.70
2012,07,10,20,38,19.70